Location: *
(50.6089°N, 2.2719°E)
Time: 18:58:57
(UTC+00:00)

STARLINK-35 - Pass Details

Date: 18 October 2019
Orbit: 548 x 551 km, 53.0° (Epoch: 20 November)

Event Time Altitude Azimuth Distance (km) Brightness Sun altitude
Rises 18:38:58 0° 267° (W) 2,716 8.8 -17.5°
Reaches altitude 10° 18:41:13 10° 270° (W) 1,824 7.6 -17.8°
Maximum altitude 18:45:20 64° 353° (N) 613 3.8 -18.5°
Enters shadow 18:46:41 39° 59° (ENE) 834 4.1 -18.7°
